sat.trackr.live / text

‹ back to catalog

STARLINK-4789

NORAD 53868 · 2022-114BC

PAYLOAD ACTIVE UNKNOWN

§ Identity

Operator
Country
US
Launch date
2022-09-19
Launch site
AFETR
Launch vehicle
Mass (kg)
RCS (m²)

Purposes: comms

External: N2YO · Heavens-Above · Gunter

§ Orbital elements

Epoch: 2026-05-24T19:09:32.643072Z

Period
95.44 min
Inclination
53.2161°
Eccentricity
0.0001277
Mean motion
15.08837565 rev/d
Perigee alt
538.9 km
Apogee alt
540.6 km
Semi-major
6,917.9 km
B*
2.0629e-5
RAAN
282.3618°
Arg perigee
91.8003°
Mean anomaly
268.3136°
Rev number
20,488

§ Raw data

STARLINK-47891 53868U 22114BC  26144.79829448  .00000040  00000+0  20629-4 0  99942 53868  53.2161 282.3618 0001277  91.8003 268.3136 15.08837565204887

JSON: /api/v1/satellites/53868 · /tle

For live sub-satellite position, see the globe view (requires WebGL).

§ Visibility from observer

Set your observer location to see the next 7 days of passes ≥ 10°. The values pass through the URL so the page stays shareable.

No JS? Fill the form by hand. The geolocation button needs JavaScript.